ATLAS 5 CENTAUR DEB, 44040

Orbit data source: Space-Track

ATLAS 5 CENTAUR DEB, 44040 is space debris in HEO originally from a launch on Wed, 17 Sep 2014 UTC launched from the Air Force Eastern Test Range (AFETR). Debris objects in space refer to the collection of defunct objects orbiting the Earth. Examples of debris include non-operational satellites, rocket bodies, and fragments generated from explosions, collisions, or faulty payload assembly.

Loading next visibility...
Identifier
44040, 2014-055CA
Orbit
HEO
Country
Flag of USUS
Related business
Flag of USUnited Launch Alliance/Lockheed Martin (US)
Manufacturer
Unknown
Mission
Spacecraft
Bus & Motor
Unknown
Mass
Unknown
Launch date (UTC)
2014-09-17 (11 years ago)
Launch vehicle
Unknown
Launch site
Air Force Eastern Test Range (AFETR)
Object type
Payload
Rocket body
Debris
Shape & HBR
Unknown shape, 1.1 m
Radar Cross Section
Small (<0.1 m²)

Expand to show TLE details & history
Last TLE update: 6 days ago

TLE from 6 days ago
0 ATLAS 5 CENTAUR DEB
1 44040U 14055CA  26056.53266955 -.00000118  00000-0  00000-0 0  9998
2 44040  20.1978 145.9783 4796329 162.1678 223.1817  1.88071130 49757
Epoch: 2026-02-25T12:47Z
TLE epoch observation values (Epoch: 2026-02-25T12:47:02.649Z)
Latitude
-0.00001°
Longitude
158.80364°
Altitude
32,923.851 km
Speed
2.43 km/s
True Right ascension
09h 43m 50s
True Declination
0° 00' 00"
Sunlit
Object was in daylight at epoch
Visualization orbit readout
Latitude
Unknown
Longitude
Unknown
Altitude
Unknown
Speed
Unknown
Apparent Right ascension
Unknown
Apparent Declination
Unknown
Sunlit
N/A
Visualization observer readout
Local Sidereal Time
11:37:27
Azimuth
Unknown
Elevation
Unknown
Doppler factor
Unknown
Orbital elements
Apogee altitude
34,645.886 km
Perigee altitude
8,049.463 km
Semi-major axis
27,725.811 km
Eccentricity
0.47963
Inclination
20.1978°
RAAN
145.9783°
Arg. of periapsis
162.1678°
True anomaly
197.81343°
Mean anomaly
223.1817°
Eccentric anomaly
209.60544°
Mean motion
0.47013 °/min
Orbital period
765.75 mins
BSTAR
0
Loading maneuver chart data...
Computing Atmospheric mass density...

Documentation

Showing up to 5 results
|